• In Portugal
  • List of Countries
  • For 7 days
  • Water Temperature
  • Satellite Maps
  • Weather Map
  • Weather Widgets
  • user-avatar
    Login

    Hourly Weather Sagaleipie

    Today, 23 May, Wednesday

    Time Temperature Precipitation Wind Pressure Humidity
    00:00 +24°C° 0.1 mm 1 mps 724 mmHg 99%
    01:00 +24°C° 0.1 mm 1 mps 724 mmHg 99%
    02:00 +24°C° 0.1 mm 1 mps 723 mmHg 99%
    03:00 +24°C° 0 mm 1 mps 723 mmHg 99%
    04:00 +24°C° 0 mm 1 mps 723 mmHg 99%
    05:00 +24°C° 0 mm 1 mps 723 mmHg 99%
    06:00 +25°C° 0.1 mm 1 mps 724 mmHg 97%
    07:00 +25°C° 0.1 mm 1 mps 724 mmHg 95%
    08:00 +26°C° 0.1 mm 1 mps 724 mmHg 94%
    09:00 +27°C° 0 mm 1 mps 724 mmHg 87%
    10:00 +28°C° 0 mm 1 mps 724 mmHg 80%
    11:00 +29°C° 0 mm 1 mps 724 mmHg 74%
    12:00 +30°C° 0.1 mm 1 mps 724 mmHg 71%
    13:00 +31°C° 0.1 mm 1 mps 723 mmHg 68%
    14:00 +31°C° 0.1 mm 1 mps 723 mmHg 66%
    15:00 +31°C° 0.3 mm 1 mps 723 mmHg 69%
    16:00 +30°C° 0.3 mm 1 mps 723 mmHg 72%
    17:00 +30°C° 0.3 mm 1 mps 723 mmHg 76%
    18:00 +28°C° 1.7 mm 1 mps 723 mmHg 83%
    19:00 +27°C° 1.7 mm 1 mps 724 mmHg 90%
    20:00 +25°C° 1.7 mm 1 mps 724 mmHg 97%
    21:00 +25°C° 0.2 mm 1 mps 724 mmHg 97%
    22:00 +25°C° 0.2 mm 1 mps 724 mmHg 98%
    23:00 +25°C° 0.2 mm 1 mps 724 mmHg 98%

    Tomorrow, 24 May, Thursday

    Time Temperature Precipitation Wind Pressure Humidity
    00:00 +24°C° 0.6 mm 1 mps 724 mmHg 98%
    01:00 +24°C° 0.6 mm 1 mps 724 mmHg 99%
    02:00 +22°C° 0.6 mm 0 mps 724 mmHg 99%
    03:00 +22°C° 1 mm 0 mps 724 mmHg 99%
    04:00 +22°C° 1 mm 0 mps 724 mmHg 99%
    05:00 +22°C° 1 mm 0 mps 723 mmHg 99%
    06:00 +25°C° 0 mm 1 mps 724 mmHg 96%
    07:00 +25°C° 0 mm 1 mps 724 mmHg 94%
    08:00 +26°C° 0 mm 1 mps 724 mmHg 91%
    09:00 +28°C° 0 mm 1 mps 724 mmHg 82%
    10:00 +30°C° 0 mm 1 mps 724 mmHg 74%
    11:00 +31°C° 0 mm 1 mps 724 mmHg 66%
    12:00 +31°C° 1.5 mm 1 mps 724 mmHg 69%
    13:00 +31°C° 1.5 mm 1 mps 723 mmHg 72%
    14:00 +31°C° 1.5 mm 1 mps 722 mmHg 75%
    15:00 +29°C° 2.4 mm 1 mps 722 mmHg 82%
    16:00 +28°C° 2.4 mm 1 mps 722 mmHg 88%
    17:00 +26°C° 2.4 mm 1 mps 722 mmHg 95%
    18:00 +26°C° 0.2 mm 1 mps 723 mmHg 96%
    19:00 +25°C° 0.2 mm 1 mps 723 mmHg 97%
    20:00 +25°C° 0.2 mm 1 mps 724 mmHg 98%
    21:00 +24°C° 0 mm 1 mps 724 mmHg 98%
    22:00 +24°C° 0 mm 1 mps 724 mmHg 99%
    23:00 +24°C° 0 mm 1 mps 724 mmHg 99%

    Day after tomorrow, 25 May, Friday

    Time Temperature Precipitation Wind Pressure Humidity
    00:00 +24°C° 0 mm 1 mps 723 mmHg 99%
    01:00 +24°C° 0 mm 1 mps 723 mmHg 99%
    02:00 +24°C° 0 mm 1 mps 722 mmHg 98%
    03:00 +24°C° 0 mm 1 mps 722 mmHg 98%
    04:00 +22°C° 0 mm 0 mps 723 mmHg 98%
    05:00 +22°C° 0 mm 0 mps 723 mmHg 98%
    06:00 +25°C° 0.1 mm 1 mps 723 mmHg 96%
    07:00 +25°C° 0.1 mm 1 mps 724 mmHg 94%
    08:00 +26°C° 0.1 mm 1 mps 724 mmHg 92%
    09:00 +27°C° 0 mm 1 mps 724 mmHg 83%
    10:00 +29°C° 0 mm 1 mps 724 mmHg 74%
    11:00 +31°C° 0 mm 1 mps 724 mmHg 64%
    12:00 +32°C° 0 mm 1 mps 723 mmHg 61%
    13:00 +32°C° 0 mm 2 mps 722 mmHg 58%
    14:00 +34°C° 0 mm 2 mps 722 mmHg 55%
    15:00 +32°C° 1 mm 1 mps 722 mmHg 65%
    16:00 +30°C° 1 mm 1 mps 722 mmHg 75%
    17:00 +29°C° 1 mm 1 mps 722 mmHg 84%
    18:00 +27°C° 0.9 mm 1 mps 722 mmHg 88%
    19:00 +26°C° 0.9 mm 1 mps 723 mmHg 93%
    20:00 +25°C° 0.9 mm 1 mps 723 mmHg 97%
    21:00 +24°C° 0 mm 1 mps 723 mmHg 97%
    22:00 +24°C° 0 mm 1 mps 723 mmHg 98%
    23:00 +24°C° 0 mm 1 mps 723 mmHg 99%

    26 May, Saturday

    Time Temperature Precipitation Wind Pressure Humidity
    00:00 +24°C° 0 mm 1 mps 723 mmHg 99%
    01:00 +24°C° 0 mm 1 mps 723 mmHg 98%
    02:00 +24°C° 0 mm 1 mps 722 mmHg 98%
    03:00 +24°C° 0.1 mm 1 mps 722 mmHg 98%
    04:00 +24°C° 0.1 mm 1 mps 722 mmHg 98%
    05:00 +24°C° 0.1 mm 1 mps 722 mmHg 98%
    06:00 +24°C° 0.1 mm 1 mps 723 mmHg 97%
    07:00 +25°C° 0.1 mm 1 mps 723 mmHg 96%
    08:00 +25°C° 0.1 mm 1 mps 724 mmHg 96%
    09:00 +26°C° 0.1 mm 1 mps 724 mmHg 87%
    10:00 +28°C° 0.1 mm 1 mps 724 mmHg 78%
    11:00 +30°C° 0.1 mm 2 mps 724 mmHg 69%
    12:00 +31°C° 0.2 mm 1 mps 723 mmHg 65%
    13:00 +31°C° 0.2 mm 1 mps 723 mmHg 62%
    14:00 +32°C° 0.2 mm 1 mps 722 mmHg 58%
    15:00 +31°C° 0.4 mm 1 mps 722 mmHg 63%
    16:00 +31°C° 0.4 mm 1 mps 722 mmHg 68%
    17:00 +30°C° 0.4 mm 1 mps 722 mmHg 73%
    18:00 +28°C° 1.8 mm 1 mps 723 mmHg 80%
    19:00 +26°C° 1.8 mm 1 mps 723 mmHg 88%
    20:00 +25°C° 1.8 mm 1 mps 724 mmHg 96%
    21:00 +24°C° 0.5 mm 1 mps 724 mmHg 97%
    22:00 +24°C° 0.5 mm 1 mps 724 mmHg 97%
    23:00 +24°C° 0.5 mm 1 mps 724 mmHg 98%

    27 May, Sunday

    Time Temperature Precipitation Wind Pressure Humidity
    00:00 +24°C° 0 mm 1 mps 724 mmHg 98%
    01:00 +24°C° 0 mm 1 mps 723 mmHg 98%
    02:00 +24°C° 0 mm 1 mps 722 mmHg 98%
    03:00 +24°C° 0.1 mm 1 mps 723 mmHg 98%
    04:00 +24°C° 0.1 mm 1 mps 723 mmHg 98%
    05:00 +24°C° 0.1 mm 1 mps 723 mmHg 98%
    06:00 +24°C° 0.1 mm 1 mps 724 mmHg 97%
    07:00 +25°C° 0.1 mm 1 mps 724 mmHg 96%
    08:00 +25°C° 0.1 mm 1 mps 725 mmHg 95%
    09:00 +26°C° 0.1 mm 1 mps 725 mmHg 87%
    10:00 +28°C° 0.1 mm 1 mps 725 mmHg 80%
    11:00 +29°C° 0.1 mm 1 mps 725 mmHg 72%
    12:00 +30°C° 0 mm 1 mps 724 mmHg 68%
    13:00 +31°C° 0 mm 1 mps 723 mmHg 64%
    14:00 +32°C° 0 mm 1 mps 722 mmHg 59%
    15:00 +31°C° 0.3 mm 1 mps 723 mmHg 65%
    16:00 +30°C° 0.3 mm 1 mps 723 mmHg 71%
    17:00 +29°C° 0.3 mm 1 mps 723 mmHg 77%
    18:00 +28°C° 2.2 mm 1 mps 724 mmHg 83%
    19:00 +26°C° 2.2 mm 1 mps 724 mmHg 90%
    20:00 +25°C° 2.2 mm 1 mps 725 mmHg 96%
    21:00 +24°C° 1.1 mm 1 mps 725 mmHg 97%
    22:00 +24°C° 1.1 mm 1 mps 725 mmHg 98%
    23:00 +24°C° 1.1 mm 1 mps 725 mmHg 98%

    28 May, Monday

    Time Temperature Precipitation Wind Pressure Humidity
    00:00 +24°C° 0.2 mm 1 mps 724 mmHg 99%
    01:00 +24°C° 0.2 mm 1 mps 724 mmHg 99%
    02:00 +23°C° 0.2 mm 1 mps 724 mmHg 99%
    03:00 +23°C° 0 mm 1 mps 724 mmHg 99%
    04:00 +23°C° 0 mm 1 mps 724 mmHg 99%
    05:00 +21°C° 0 mm 0 mps 724 mmHg 99%
    06:00 +22°C° 0 mm 0 mps 725 mmHg 97%
    07:00 +25°C° 0 mm 1 mps 725 mmHg 95%
    08:00 +25°C° 0 mm 1 mps 725 mmHg 93%
    09:00 +27°C° 0 mm 1 mps 725 mmHg 86%
    10:00 +28°C° 0 mm 1 mps 725 mmHg 78%
    11:00 +29°C° 0 mm 1 mps 725 mmHg 70%
    12:00 +30°C° 0 mm 1 mps 724 mmHg 68%
    13:00 +31°C° 0 mm 1 mps 723 mmHg 65%
    14:00 +31°C° 0 mm 1 mps 723 mmHg 62%
    15:00 +30°C° 0.7 mm 1 mps 723 mmHg 70%
    16:00 +29°C° 0.7 mm 1 mps 723 mmHg 78%
    17:00 +28°C° 0.7 mm 1 mps 723 mmHg 85%
    18:00 +27°C° 0.4 mm 1 mps 724 mmHg 89%
    19:00 +26°C° 0.4 mm 1 mps 724 mmHg 93%
    20:00 +25°C° 0.4 mm 1 mps 725 mmHg 97%
    21:00 +24°C° 0 mm 1 mps 725 mmHg 98%
    22:00 +24°C° 0 mm 1 mps 724 mmHg 98%
    23:00 +23°C° 0 mm 1 mps 724 mmHg 99%
    Show more